| time (UTC) | temp F | wind direction | speed MPH | gust MPH | rain 1hr in | rain 24hr in | rain mn in | humidity % | barometer mb |
| 20260901224134 | 78 | 288 | 2.0 | 4.0 | 0.00 | 0.06 | 0.05 | 85 | 1015.6 |
| 20260901223853 | 78 | 288 | 2.0 | 4.0 | 0.00 | 0.06 | 0.05 | 84 | 1015.6 |
| 20260901221630 | 79 | 288 | 2.0 | 5.0 | 0.00 | 0.07 | 0.05 | 84 | 1015.5 |
| 20260901221129 | 79 | 288 | 2.0 | 5.0 | 0.00 | 0.07 | 0.05 | 83 | 1015.4 |
| 20260901220849 | 79 | 288 | 2.0 | 5.0 | 0.00 | 0.07 | 0.05 | 83 | 1015.5 |
| 20260901220129 | 79 | 288 | 2.0 | 5.0 | 0.00 | 0.07 | 0.05 | 83 | 1015.4 |
| 20260901215627 | 79 | 288 | 3.0 | 5.0 | 0.00 | 0.07 | 0.05 | 83 | 1015.5 |
| 20260901215122 | 79 | 288 | 3.0 | 5.0 | 0.00 | 0.07 | 0.05 | 83 | 1015.3 |
| 20260901214617 | 80 | 288 | 2.0 | 5.0 | 0.00 | 0.07 | 0.05 | 83 | 1015.1 |
| 20260901214116 | 80 | 288 | 2.0 | 7.0 | 0.00 | 0.08 | 0.05 | 83 | 1015.1 |
| 20260901213616 | 80 | 288 | 2.0 | 7.0 | 0.00 | 0.08 | 0.05 | 83 | 1015.1 |
| 20260901213118 | 80 | 288 | 3.0 | 7.0 | 0.00 | 0.08 | 0.05 | 83 | 1015.2 |
| 20260901212838 | 80 | 288 | 3.0 | 5.0 | 0.00 | 0.09 | 0.05 | 83 | 1015.3 |
| 20260901212116 | 80 | 288 | 3.0 | 8.0 | 0.00 | 0.10 | 0.05 | 84 | 1015.3 |
| 20260901211614 | 80 | 288 | 4.0 | 8.0 | 0.00 | 0.11 | 0.05 | 83 | 1015.3 |
| 20260901211112 | 80 | 288 | 3.0 | 9.0 | 0.00 | 0.12 | 0.05 | 83 | 1015.4 |
| 20260901210833 | 80 | 288 | 3.0 | 9.0 | 0.00 | 0.15 | 0.05 | 83 | 1015.3 |
| 20260901210110 | 80 | 288 | 3.0 | 8.0 | 0.00 | 0.17 | 0.05 | 84 | 1015.3 |
| 20260901205610 | 80 | 288 | 4.0 | 8.0 | 0.00 | 0.17 | 0.05 | 83 | 1015.3 |
| 20260901205108 | 80 | 288 | 3.0 | 7.0 | 0.00 | 0.17 | 0.05 | 83 | 1015.3 |
| 20260901204832 | 80 | 288 | 3.0 | 8.0 | 0.00 | 0.17 | 0.05 | 83 | 1015.3 |
| 20260901204107 | 80 | 288 | 3.0 | 8.0 | 0.00 | 0.17 | 0.05 | 83 | 1015.3 |
| 20260901203607 | 80 | 288 | 2.0 | 7.0 | 0.00 | 0.17 | 0.05 | 84 | 1015.3 |
| 20260901203107 | 80 | 288 | 2.0 | 7.0 | 0.00 | 0.17 | 0.05 | 85 | 1015.3 |
| 20260901202607 | 80 | 288 | 3.0 | 8.0 | 0.00 | 0.17 | 0.05 | 83 | 1015.3 |
| 20260901202107 | 81 | 288 | 3.0 | 8.0 | 0.00 | 0.17 | 0.05 | 82 | 1015.3 |
| 20260901201825 | 81 | 288 | 3.0 | 7.0 | 0.00 | 0.17 | 0.05 | 84 | 1015.2 |
| 20260901201105 | 80 | 288 | 3.0 | 7.0 | 0.00 | 0.17 | 0.05 | 85 | 1015.1 |
| 20260901200605 | 80 | 288 | 3.0 | 5.0 | 0.00 | 0.17 | 0.05 | 85 | 1015.1 |
| 20260901200104 | 80 | 288 | 2.0 | 5.0 | 0.00 | 0.17 | 0.05 | 85 | 1015.2 |
| 20260901195604 | 80 | 288 | 2.0 | 5.0 | 0.00 | 0.17 | 0.05 | 85 | 1015.2 |
| 20260901195329 | 80 | 288 | 2.0 | 5.0 | 0.00 | 0.18 | 0.05 | 85 | 1015.2 |
| 20260901194604 | 80 | 288 | 2.0 | 4.0 | 0.00 | 0.18 | 0.05 | 84 | 1015.2 |
| 20260901194103 | 80 | 288 | 3.0 | 7.0 | 0.00 | 0.19 | 0.05 | 84 | 1015.3 |
| 20260901193603 | 80 | 288 | 3.0 | 7.0 | 0.00 | 0.19 | 0.05 | 84 | 1015.2 |
| 20260901193105 | 80 | 288 | 3.0 | 7.0 | 0.00 | 0.19 | 0.05 | 85 | 1015.2 |
| 20260901192603 | 80 | 288 | 2.0 | 7.0 | 0.00 | 0.19 | 0.05 | 86 | 1015.2 |
| 20260901192323 | 79 | 288 | 2.0 | 7.0 | 0.00 | 0.19 | 0.05 | 86 | 1015.1 |
| 20260901191603 | 79 | 288 | 2.0 | 7.0 | 0.00 | 0.19 | 0.05 | 85 | 1015.1 |
| 20260901191103 | 79 | 288 | 3.0 | 9.0 | 0.00 | 0.19 | 0.05 | 85 | 1015.1 |
| 20260901190104 | 79 | 288 | 4.0 | 10.0 | 0.00 | 0.19 | 0.05 | 84 | 1015.2 |
| 20260901185603 | 79 | 288 | 4.0 | 10.0 | 0.00 | 0.19 | 0.05 | 84 | 1015.1 |
| 20260901185103 | 79 | 288 | 3.0 | 9.0 | 0.00 | 0.19 | 0.05 | 84 | 1015.1 |
| 20260901184605 | 79 | 288 | 2.0 | 7.0 | 0.00 | 0.19 | 0.05 | 84 | 1015.1 |
| 20260901184103 | 79 | 288 | 2.0 | 7.0 | 0.00 | 0.19 | 0.05 | 84 | 1014.9 |
| 20260901183604 | 79 | 288 | 3.0 | 7.0 | 0.00 | 0.19 | 0.05 | 83 | 1014.9 |
| 20260901183105 | 80 | 288 | 3.0 | 8.0 | 0.00 | 0.19 | 0.05 | 83 | 1014.9 |
| 20260901182602 | 80 | 288 | 3.0 | 8.0 | 0.00 | 0.19 | 0.05 | 82 | 1014.8 |
| 20260901182101 | 80 | 288 | 2.0 | 7.0 | 0.00 | 0.19 | 0.05 | 82 | 1014.8 |
| 20260901181602 | 80 | 288 | 2.0 | 9.0 | 0.00 | 0.19 | 0.05 | 84 | 1014.7 |
| 20260901181102 | 80 | 288 | 3.0 | 9.0 | 0.00 | 0.19 | 0.05 | 83 | 1014.7 |
| 20260901180601 | 79 | 288 | 4.0 | 10.0 | 0.00 | 0.19 | 0.05 | 84 | 1014.7 |
| 20260901175601 | 80 | 288 | 3.0 | 10.0 | 0.00 | 0.19 | 0.05 | 83 | 1014.5 |
| 20260901175101 | 79 | 288 | 3.0 | 8.0 | 0.00 | 0.19 | 0.05 | 82 | 1014.5 |
| 20260901174600 | 80 | 288 | 2.0 | 7.0 | 0.00 | 0.19 | 0.05 | 83 | 1014.6 |
| 20260901174101 | 80 | 288 | 2.0 | 5.0 | 0.00 | 0.19 | 0.05 | 83 | 1014.4 |
| 20260901173601 | 79 | 288 | 3.0 | 8.0 | 0.00 | 0.19 | 0.05 | 85 | 1014.4 |
| 20260901173103 | 79 | 288 | 4.0 | 9.0 | 0.00 | 0.19 | 0.05 | 84 | 1014.4 |
| 20260901172603 | 79 | 288 | 4.0 | 9.0 | 0.00 | 0.19 | 0.05 | 83 | 1014.5 |
| 20260901172100 | 79 | 288 | 2.0 | 7.0 | 0.00 | 0.19 | 0.05 | 82 | 1014.5 |
| 20260901171601 | 80 | 288 | 2.0 | 7.0 | 0.00 | 0.19 | 0.05 | 82 | 1014.5 |
| 20260901171325 | 80 | 288 | 3.0 | 9.0 | 0.00 | 0.19 | 0.05 | 84 | 1014.5 |
| 20260901170602 | 80 | 288 | 3.0 | 9.0 | 0.00 | 0.19 | 0.05 | 84 | 1014.5 |
| 20260901165600 | 80 | 288 | 3.0 | 8.0 | 0.00 | 0.20 | 0.05 | 82 | 1014.5 |
| 20260901165100 | 80 | 288 | 4.0 | 10.0 | 0.00 | 0.20 | 0.05 | 83 | 1014.5 |
| 20260901164608 | 80 | 288 | 4.0 | 10.0 | 0.00 | 0.21 | 0.05 | 82 | 1014.4 |
| 20260901164103 | 79 | 288 | 3.0 | 8.0 | 0.00 | 0.21 | 0.05 | 83 | 1014.4 |
| 20260901163601 | 79 | 288 | 4.0 | 10.0 | 0.00 | 0.21 | 0.05 | 82 | 1014.5 |
| 20260901163101 | 79 | 288 | 4.0 | 10.0 | 0.00 | 0.22 | 0.05 | 83 | 1014.5 |
| 20260901162601 | 79 | 288 | 3.0 | 10.0 | 0.00 | 0.22 | 0.05 | 82 | 1014.5 |
| 20260901162103 | 79 | 288 | 4.0 | 10.0 | 0.00 | 0.22 | 0.05 | 83 | 1014.4 |
| 20260901161600 | 79 | 288 | 4.0 | 11.0 | 0.00 | 0.23 | 0.05 | 82 | 1014.4 |
| 20260901161100 | 80 | 288 | 4.0 | 11.0 | 0.00 | 0.23 | 0.05 | 82 | 1014.4 |
| 20260901160558 | 79 | 288 | 4.0 | 11.0 | 0.00 | 0.23 | 0.05 | 82 | 1014.4 |
| 20260901160324 | 79 | 288 | 4.0 | 11.0 | 0.00 | 0.23 | 0.05 | 83 | 1014.4 |
| 20260901155558 | 79 | 288 | 4.0 | 10.0 | 0.00 | 0.23 | 0.05 | 83 | 1014.4 |
| 20260901155055 | 79 | 288 | 3.0 | 9.0 | 0.00 | 0.24 | 0.05 | 83 | 1014.4 |
| 20260901154553 | 79 | 288 | 3.0 | 10.0 | 0.00 | 0.24 | 0.05 | 86 | 1014.4 |
| 20260901154055 | 78 | 288 | 5.0 | 11.0 | 0.00 | 0.24 | 0.05 | 87 | 1014.4 |
| 20260901153553 | 78 | 288 | 5.0 | 11.0 | 0.00 | 0.25 | 0.05 | 87 | 1014.3 |
| 20260901153053 | 77 | 288 | 3.0 | 10.0 | 0.00 | 0.25 | 0.05 | 90 | 1014.3 |
| 20260901152551 | 77 | 288 | 2.0 | 9.0 | 0.00 | 0.26 | 0.05 | 93 | 1014.3 |
| 20260901152051 | 76 | 288 | 2.0 | 7.0 | 0.00 | 0.27 | 0.05 | 95 | 1014.4 |
| 20260901151550 | 75 | 288 | 2.0 | 4.0 | 0.00 | 0.29 | 0.05 | 98 | 1014.4 |
| 20260901151307 | 74 | 288 | 2.0 | 5.0 | 0.00 | 0.30 | 0.05 | 98 | 1014.6 |
| 20260901150547 | 73 | 288 | 1.0 | 5.0 | 0.00 | 0.30 | 0.05 | 98 | 1014.4 |
| 20260901150043 | 73 | 288 | 1.0 | 3.0 | 0.00 | 0.31 | 0.05 | 98 | 1014.6 |
| 20260901145542 | 73 | 288 | 1.0 | 3.0 | 0.00 | 0.31 | 0.05 | 98 | 1014.7 |
| 20260901145039 | 73 | 288 | 2.0 | 4.0 | 0.00 | 0.32 | 0.05 | 98 | 1014.6 |
| 20260901144539 | 72 | 288 | 1.0 | 4.0 | 0.00 | 0.33 | 0.05 | 98 | 1014.5 |
| 20260901144039 | 72 | 288 | 1.0 | 4.0 | 0.00 | 0.34 | 0.05 | 98 | 1014.6 |
| 20260901143758 | 72 | 288 | 2.0 | 4.0 | 0.00 | 0.35 | 0.05 | 99 | 1014.6 |
| 20260901143035 | 72 | 288 | 2.0 | 5.0 | 0.00 | 0.35 | 0.05 | 99 | 1014.6 |
| 20260901142535 | 72 | 288 | 2.0 | 7.0 | 0.00 | 0.36 | 0.05 | 99 | 1014.5 |
| 20260901142038 | 72 | 288 | 2.0 | 7.0 | 0.00 | 0.36 | 0.05 | 99 | 1014.5 |
| 20260901141536 | 72 | 288 | 2.0 | 7.0 | 0.00 | 0.36 | 0.05 | 99 | 1014.4 |
| 20260901141035 | 72 | 288 | 2.0 | 5.0 | 0.00 | 0.37 | 0.05 | 99 | 1014.5 |
| 20260901140537 | 72 | 288 | 2.0 | 4.0 | 0.00 | 0.37 | 0.05 | 99 | 1014.3 |
| 20260901140035 | 71 | 288 | 2.0 | 5.0 | 0.00 | 0.37 | 0.05 | 99 | 1014.2 |
| 20260901135754 | 71 | 288 | 2.0 | 7.0 | 0.00 | 0.37 | 0.05 | 99 | 1014.3 |
| 20260901135254 | 71 | 288 | 2.0 | 7.0 | 0.00 | 0.37 | 0.05 | 99 | 1014.3 |
| 20260901134533 | 71 | 288 | 2.0 | 7.0 | 0.00 | 0.37 | 0.05 | 99 | 1014.3 |
| 20260901134030 | 71 | 288 | 2.0 | 7.0 | 0.00 | 0.37 | 0.05 | 99 | 1014.3 |
| 20260901133529 | 70 | 288 | 2.0 | 7.0 | 0.00 | 0.37 | 0.05 | 99 | 1014.4 |
| 20260901133026 | 70 | 288 | 2.0 | 7.0 | 0.00 | 0.37 | 0.05 | 99 | 1014.4 |
| 20260901132523 | 70 | 288 | 2.0 | 7.0 | 0.00 | 0.37 | 0.05 | 99 | 1014.5 |
| 20260901132014 | 70 | 288 | 2.0 | 4.0 | 0.00 | 0.37 | 0.05 | 99 | 1014.5 |
| 20260901131730 | 70 | 288 | 2.0 | 8.0 | 0.00 | 0.37 | 0.05 | 99 | 1014.4 |
| 20260901130501 | 70 | 288 | 1.0 | 7.0 | 0.00 | 0.37 | 0.05 | 100 | 1014.5 |
| 20260901130223 | 70 | 288 | 1.0 | 7.0 | 0.00 | 0.37 | 0.05 | 99 | 1014.6 |
| 20260901125501 | 70 | 288 | 2.0 | 4.0 | 0.00 | 0.37 | 0.05 | 99 | 1014.7 |
| 20260901125221 | 69 | 288 | 2.0 | 4.0 | 0.00 | 0.37 | 0.05 | 99 | 1014.7 |
| 20260901124724 | 69 | 288 | 2.0 | 7.0 | 0.00 | 0.37 | 0.05 | 99 | 1014.7 |
| 20260901124228 | 69 | 288 | 2.0 | 7.0 | 0.00 | 0.37 | 0.05 | 99 | 1014.9 |
| 20260901123501 | 69 | 288 | 2.0 | 7.0 | 0.00 | 0.37 | 0.05 | 99 | 1015.0 |
| 20260901123000 | 69 | 288 | 1.0 | 5.0 | 0.00 | 0.37 | 0.05 | 99 | 1015.0 |
| 20260901122501 | 69 | 288 | 1.0 | 4.0 | 0.00 | 0.37 | 0.05 | 99 | 1014.8 |
| 20260901122000 | 69 | 288 | 1.0 | 3.0 | 0.00 | 0.37 | 0.05 | 99 | 1014.8 |
| 20260901121729 | 69 | 288 | 0.0 | 3.0 | 0.00 | 0.37 | 0.05 | 99 | 1014.9 |
| 20260901121002 | 69 | 288 | 0.0 | 2.0 | 0.00 | 0.37 | 0.05 | 99 | 1014.9 |
| 20260901120501 | 69 | 288 | 0.0 | 3.0 | 0.00 | 0.37 | 0.05 | 99 | 1014.9 |
| 20260901120001 | 69 | 288 | 0.0 | 3.0 | 0.00 | 0.37 | 0.05 | 99 | 1014.8 |
| 20260901115501 | 69 | 288 | 1.0 | 2.0 | 0.00 | 0.37 | 0.05 | 99 | 1014.8 |
| 20260901115000 | 69 | 288 | 1.0 | 2.0 | 0.00 | 0.37 | 0.05 | 99 | 1014.7 |
| 20260901114502 | 68 | 288 | 1.0 | 3.0 | 0.00 | 0.37 | 0.05 | 99 | 1014.6 |
| 20260901113959 | 68 | 288 | 1.0 | 3.0 | 0.00 | 0.37 | 0.05 | 99 | 1014.6 |
| 20260901113451 | 68 | 288 | 1.0 | 3.0 | 0.00 | 0.37 | 0.05 | 99 | 1014.6 |
| 20260901113218 | 68 | 288 | 1.0 | 4.0 | 0.00 | 0.37 | 0.05 | 99 | 1014.8 |
| 20260901112450 | 68 | 288 | 0.0 | 4.0 | 0.00 | 0.37 | 0.05 | 99 | 1014.7 |
| 20260901112210 | 68 | 288 | 0.0 | 0.0 | 0.00 | 0.37 | 0.05 | 99 | 1014.7 |
| 20260901111449 | 68 | 288 | 0.0 | 0.0 | 0.00 | 0.37 | 0.05 | 99 | 1014.8 |
| 20260901110947 | 68 | 288 | 0.0 | 0.0 | 0.00 | 0.37 | 0.05 | 99 | 1014.7 |
| 20260901110445 | 68 | 288 | 0.0 | 0.0 | 0.00 | 0.37 | 0.05 | 99 | 1014.8 |
| 20260901105440 | 68 | 288 | 0.0 | 0.0 | 0.00 | 0.37 | 0.05 | 99 | 1014.9 |
| 20260901104938 | 68 | 288 | 0.0 | 0.0 | 0.00 | 0.37 | 0.05 | 99 | 1014.8 |
| 20260901104439 | 68 | 288 | 0.0 | 0.0 | 0.00 | 0.37 | 0.05 | 99 | 1015.0 |
| 20260901103940 | 68 | 288 | 0.0 | 0.0 | 0.00 | 0.37 | 0.05 | 99 | 1014.8 |
| 20260901103438 | 68 | 288 | 0.0 | 0.0 | 0.00 | 0.37 | 0.05 | 99 | 1014.7 |
| 20260901103200 | 68 | 288 | 0.0 | 0.0 | 0.00 | 0.37 | 0.05 | 99 | 1014.7 |
| 20260901102437 | 68 | 288 | 0.0 | 0.0 | 0.00 | 0.37 | 0.05 | 99 | 1014.8 |
| 20260901101935 | 68 | 288 | 0.0 | 0.0 | 0.00 | 0.37 | 0.05 | 99 | 1014.5 |
| 20260901101435 | 68 | 288 | 0.0 | 3.0 | 0.00 | 0.37 | 0.05 | 99 | 1014.5 |
| 20260901101156 | 68 | 288 | 1.0 | 3.0 | 0.00 | 0.37 | 0.05 | 99 | 1014.4 |
| 20260901100437 | 68 | 288 | 1.0 | 3.0 | 0.01 | 0.37 | 0.05 | 99 | 1014.4 |
| 20260901095934 | 68 | 288 | 1.0 | 2.0 | 0.02 | 0.35 | 0.05 | 99 | 1014.6 |
| 20260901095702 | 68 | 288 | 1.0 | 2.0 | 0.02 | 0.35 | 0.05 | 99 | 1014.7 |
| 20260901094933 | 68 | 288 | 1.0 | 3.0 | 0.02 | 0.35 | 0.05 | 99 | 1014.8 |
| 20260901094433 | 68 | 288 | 1.0 | 3.0 | 0.02 | 0.35 | 0.05 | 99 | 1014.8 |
| 20260901093930 | 68 | 288 | 1.0 | 3.0 | 0.02 | 0.35 | 0.05 | 99 | 1015.1 |
| 20260901093656 | 68 | 288 | 2.0 | 4.0 | 0.02 | 0.35 | 0.05 | 99 | 1014.8 |
| 20260901092932 | 68 | 288 | 2.0 | 4.0 | 0.02 | 0.35 | 0.05 | 99 | 1014.9 |
| 20260901092430 | 68 | 288 | 2.0 | 4.0 | 0.02 | 0.35 | 0.05 | 99 | 1015.1 |
| 20260901092148 | 68 | 288 | 2.0 | 5.0 | 0.02 | 0.35 | 0.05 | 99 | 1015.1 |
| 20260901091431 | 68 | 288 | 2.0 | 5.0 | 0.02 | 0.35 | 0.05 | 99 | 1014.7 |
| 20260901090931 | 68 | 288 | 1.0 | 3.0 | 0.02 | 0.35 | 0.05 | 99 | 1014.9 |
| 20260901090432 | 68 | 288 | 1.0 | 5.0 | 0.01 | 0.35 | 0.04 | 99 | 1015.0 |
| 20260901085930 | 68 | 288 | 1.0 | 5.0 | 0.00 | 0.35 | 0.03 | 99 | 1014.8 |
| 20260901085431 | 68 | 288 | 1.0 | 3.0 | 0.00 | 0.35 | 0.03 | 99 | 1014.7 |
| 20260901084931 | 68 | 288 | 1.0 | 3.0 | 0.00 | 0.35 | 0.03 | 99 | 1014.5 |
| 20260901084431 | 68 | 288 | 1.0 | 3.0 | 0.00 | 0.35 | 0.03 | 99 | 1014.7 |
| 20260901083930 | 68 | 288 | 1.0 | 4.0 | 0.00 | 0.35 | 0.03 | 99 | 1014.7 |
| 20260901083431 | 68 | 288 | 1.0 | 4.0 | 0.00 | 0.35 | 0.03 | 99 | 1014.8 |
| 20260901082931 | 68 | 288 | 1.0 | 3.0 | 0.00 | 0.35 | 0.03 | 99 | 1014.7 |
| 20260901082430 | 68 | 288 | 2.0 | 7.0 | 0.00 | 0.35 | 0.03 | 99 | 1014.8 |
| 20260901081931 | 68 | 288 | 2.0 | 7.0 | 0.00 | 0.35 | 0.03 | 99 | 1014.8 |
| 20260901081431 | 68 | 288 | 2.0 | 5.0 | 0.00 | 0.35 | 0.03 | 99 | 1014.8 |
| 20260901080933 | 68 | 288 | 1.0 | 4.0 | 0.00 | 0.35 | 0.03 | 99 | 1014.9 |
| 20260901080432 | 68 | 288 | 2.0 | 9.0 | 0.00 | 0.35 | 0.03 | 99 | 1015.1 |
| 20260901075929 | 68 | 288 | 2.0 | 9.0 | 0.00 | 0.35 | 0.03 | 99 | 1015.2 |
| 20260901075428 | 69 | 288 | 2.0 | 4.0 | 0.00 | 0.35 | 0.03 | 99 | 1015.2 |
| 20260901074929 | 69 | 288 | 2.0 | 7.0 | 0.01 | 0.35 | 0.03 | 99 | 1015.2 |
| 20260901074431 | 69 | 288 | 2.0 | 8.0 | 0.02 | 0.35 | 0.03 | 99 | 1015.3 |
| 20260901073929 | 69 | 288 | 2.0 | 8.0 | 0.02 | 0.35 | 0.03 | 99 | 1015.5 |
| 20260901073429 | 69 | 288 | 1.0 | 7.0 | 0.02 | 0.35 | 0.03 | 99 | 1015.5 |
| 20260901072929 | 69 | 288 | 2.0 | 8.0 | 0.03 | 0.35 | 0.03 | 99 | 1015.6 |
| 20260901072430 | 69 | 288 | 2.0 | 8.0 | 0.03 | 0.35 | 0.03 | 99 | 1015.7 |
| 20260901071929 | 69 | 288 | 2.0 | 5.0 | 0.03 | 0.35 | 0.03 | 99 | 1015.7 |
| 20260901071429 | 69 | 288 | 1.0 | 4.0 | 0.03 | 0.35 | 0.03 | 99 | 1015.8 |
| 20260901070930 | 69 | 288 | 0.0 | 3.0 | 0.03 | 0.35 | 0.03 | 99 | 1015.8 |
| 20260901070430 | 69 | 288 | 1.0 | 3.0 | 0.03 | 0.35 | 0.03 | 99 | 1015.9 |
| 20260901065932 | 69 | 288 | 1.0 | 3.0 | 0.03 | 0.32 | 0.03 | 99 | 1015.8 |
| 20260901065429 | 69 | 288 | 1.0 | 3.0 | 0.03 | 0.32 | 0.03 | 99 | 1015.9 |
| 20260901064929 | 69 | 288 | 1.0 | 4.0 | 0.02 | 0.32 | 0.02 | 99 | 1015.9 |
| 20260901064656 | 69 | 288 | 1.0 | 4.0 | 0.01 | 0.32 | 0.01 | 99 | 1016.0 |
| 20260901063929 | 69 | 288 | 1.0 | 3.0 | 0.01 | 0.32 | 0.01 | 99 | 1016.0 |
| 20260901063430 | 69 | 288 | 1.0 | 4.0 | 0.01 | 0.32 | 0.01 | 99 | 1016.1 |
| 20260901062929 | 69 | 288 | 1.0 | 4.0 | 0.00 | 0.32 | 0.00 | 99 | 1016.1 |
| 20260901062429 | 69 | 288 | 0.0 | 3.0 | 0.00 | 0.32 | 0.00 | 99 | 1016.1 |
| 20260901062155 | 69 | 288 | 0.0 | 3.0 | 0.00 | 0.32 | 0.00 | 99 | 1016.1 |
| 20260901061429 | 69 | 288 | 0.0 | 3.0 | 0.00 | 0.32 | 0.00 | 99 | 1016.1 |
| 20260901061149 | 69 | 288 | 0.0 | 3.0 | 0.00 | 0.32 | 0.00 | 99 | 1016.1 |
| 20260901055929 | 69 | 288 | 1.0 | 3.0 | 0.00 | 0.32 | 0.00 | 99 | 1016.3 |
| 20260901055429 | 69 | 288 | 1.0 | 4.0 | 0.00 | 0.32 | 0.00 | 99 | 1016.1 |
| 20260901055149 | 69 | 288 | 1.0 | 4.0 | 0.00 | 0.32 | 0.00 | 99 | 1016.1 |
| 20260901054430 | 69 | 288 | 1.0 | 3.0 | 0.00 | 0.32 | 0.00 | 99 | 1016.1 |
| 20260901053929 | 69 | 288 | 1.0 | 3.0 | 0.00 | 0.32 | 0.00 | 99 | 1016.1 |
| 20260901053428 | 69 | 288 | 1.0 | 3.0 | 0.00 | 0.32 | 0.00 | 99 | 1016.4 |
| 20260901052929 | 69 | 288 | 1.0 | 3.0 | 0.00 | 0.32 | 0.00 | 99 | 1016.5 |
| 20260901052429 | 69 | 288 | 1.0 | 3.0 | 0.00 | 0.32 | 0.00 | 99 | 1016.6 |
| 20260901051929 | 69 | 288 | 1.0 | 3.0 | 0.00 | 0.32 | 0.00 | 99 | 1016.7 |
| 20260901051428 | 69 | 288 | 1.0 | 3.0 | 0.00 | 0.32 | 0.00 | 99 | 1016.8 |
| 20260901050647 | 69 | 288 | 1.0 | 4.0 | 0.00 | 0.32 | 0.00 | 99 | 1016.7 |
| 20260901045926 | 69 | 288 | 1.0 | 3.0 | 0.00 | 0.32 | 0.00 | 99 | 1016.7 |
| 20260901045645 | 69 | 288 | 1.0 | 3.0 | 0.00 | 0.32 | 0.00 | 99 | 1016.7 |
| 20260901044914 | 69 | 288 | 0.0 | 3.0 | 0.00 | 0.32 | 0.00 | 99 | 1016.6 |
| 20260901044407 | 69 | 288 | 0.0 | 2.0 | 0.00 | 0.32 | 0.00 | 99 | 1016.6 |
| 20260901043902 | 69 | 288 | 1.0 | 2.0 | 0.00 | 0.32 | 0.00 | 99 | 1016.7 |
| 20260901043401 | 69 | 288 | 1.0 | 3.0 | 0.00 | 0.32 | 0.00 | 99 | 1016.5 |
| 20260901043125 | 69 | 288 | 1.0 | 3.0 | 0.00 | 0.32 | 0.00 | 99 | 1016.7 |
| 20260901042403 | 69 | 288 | 1.0 | 2.0 | 0.00 | 0.32 | 0.00 | 99 | 1016.6 |
| 20260901041901 | 69 | 288 | 1.0 | 2.0 | 0.00 | 0.32 | 0.00 | 99 | 1016.6 |
| 20260901041401 | 69 | 288 | 0.0 | 2.0 | 0.00 | 0.32 | 0.00 | 99 | 1016.8 |
| 20260901040901 | 69 | 288 | 0.0 | 1.0 | 0.00 | 0.32 | 0.00 | 99 | 1016.9 |
| 20260901040504 | 69 | 288 | 0.0 | 2.0 | 0.00 | 0.32 | 0.32 | 99 | 1016.8 |
| 20260901040453 | 69 | 288 | 0.0 | 1.0 | 0.00 | 0.00 | 0.00 | 99 | 1016.8 |
| 20260901035401 | 68 | 288 | 0.0 | 2.0 | 0.00 | 0.32 | 0.32 | 99 | 1016.8 |
| 20260901034904 | 68 | 288 | 1.0 | 2.0 | 0.00 | 0.32 | 0.32 | 99 | 1016.9 |
| 20260901034401 | 68 | 288 | 1.0 | 2.0 | 0.00 | 0.32 | 0.32 | 99 | 1016.8 |
| 20260901033901 | 68 | 288 | 1.0 | 2.0 | 0.00 | 0.32 | 0.32 | 99 | 1016.8 |
| 20260901033401 | 68 | 288 | 0.0 | 2.0 | 0.00 | 0.32 | 0.32 | 99 | 1017.1 |
| 20260901032904 | 68 | 288 | 0.0 | 2.0 | 0.00 | 0.32 | 0.32 | 99 | 1016.9 |
| 20260901032403 | 68 | 288 | 1.0 | 2.0 | 0.00 | 0.32 | 0.32 | 99 | 1017.0 |
| 20260901031901 | 68 | 288 | 1.0 | 3.0 | 0.00 | 0.32 | 0.32 | 99 | 1016.8 |
| 20260901031401 | 68 | 288 | 1.0 | 3.0 | 0.00 | 0.32 | 0.32 | 99 | 1017.0 |
| 20260901030905 | 68 | 288 | 0.0 | 3.0 | 0.00 | 0.32 | 0.32 | 99 | 1016.9 |
| 20260901030401 | 68 | 288 | 1.0 | 2.0 | 0.00 | 0.32 | 0.32 | 99 | 1016.9 |
| 20260901025901 | 68 | 288 | 1.0 | 3.0 | 0.00 | 0.32 | 0.32 | 98 | 1016.9 |
| 20260901025401 | 68 | 288 | 1.0 | 3.0 | 0.00 | 0.32 | 0.32 | 98 | 1017.1 |
| 20260901025134 | 68 | 288 | 1.0 | 4.0 | 0.00 | 0.32 | 0.32 | 98 | 1017.1 |
| 20260901024404 | 68 | 288 | 1.0 | 4.0 | 0.00 | 0.32 | 0.32 | 98 | 1017.1 |
| 20260901023901 | 68 | 288 | 1.0 | 4.0 | 0.00 | 0.32 | 0.32 | 98 | 1017.2 |
| 20260901023402 | 68 | 288 | 2.0 | 4.0 | 0.00 | 0.32 | 0.32 | 98 | 1017.2 |
| 20260901022902 | 68 | 288 | 1.0 | 4.0 | 0.00 | 0.32 | 0.32 | 98 | 1017.0 |
| 20260901022401 | 68 | 288 | 1.0 | 4.0 | 0.00 | 0.32 | 0.32 | 98 | 1017.2 |
| 20260901021900 | 68 | 288 | 1.0 | 4.0 | 0.00 | 0.32 | 0.32 | 98 | 1017.1 |
| 20260901021625 | 68 | 288 | 0.0 | 3.0 | 0.00 | 0.32 | 0.32 | 98 | 1017.0 |
| 20260901020900 | 68 | 288 | 1.0 | 3.0 | 0.00 | 0.32 | 0.32 | 99 | 1016.9 |
| 20260901020403 | 68 | 288 | 0.0 | 2.0 | 0.00 | 0.32 | 0.32 | 99 | 1017.1 |
| 20260901015901 | 68 | 288 | 1.0 | 3.0 | 0.00 | 0.32 | 0.32 | 98 | 1017.1 |
| 20260901015401 | 68 | 288 | 1.0 | 3.0 | 0.00 | 0.32 | 0.32 | 98 | 1017.1 |
| 20260901014903 | 68 | 288 | 1.0 | 3.0 | 0.00 | 0.32 | 0.32 | 98 | 1017.3 |
| 20260901014401 | 68 | 288 | 0.0 | 4.0 | 0.00 | 0.32 | 0.32 | 98 | 1017.4 |
| 20260901013400 | 68 | 288 | 1.0 | 3.0 | 0.00 | 0.32 | 0.32 | 98 | 1017.4 |
| 20260901012401 | 68 | 288 | 1.0 | 3.0 | 0.00 | 0.32 | 0.32 | 98 | 1017.5 |
| 20260901011901 | 68 | 288 | 1.0 | 3.0 | 0.00 | 0.32 | 0.32 | 98 | 1017.5 |
| 20260901011403 | 68 | 288 | 1.0 | 3.0 | 0.00 | 0.32 | 0.32 | 98 | 1017.5 |
| 20260901010900 | 68 | 288 | 1.0 | 2.0 | 0.01 | 0.32 | 0.32 | 98 | 1017.5 |
| 20260901010402 | 68 | 288 | 0.0 | 2.0 | 0.01 | 0.32 | 0.32 | 98 | 1017.4 |
| 20260901005901 | 68 | 288 | 0.0 | 2.0 | 0.01 | 0.31 | 0.32 | 98 | 1017.4 |
| 20260901005402 | 68 | 288 | 0.0 | 2.0 | 0.01 | 0.31 | 0.32 | 98 | 1017.3 |
| 20260901004901 | 68 | 288 | 0.0 | 2.0 | 0.01 | 0.31 | 0.32 | 98 | 1017.3 |
| 20260901004403 | 68 | 288 | 1.0 | 4.0 | 0.01 | 0.31 | 0.32 | 98 | 1017.4 |
| 20260901003901 | 68 | 288 | 1.0 | 4.0 | 0.01 | 0.31 | 0.32 | 98 | 1017.2 |
| 20260901002901 | 68 | 288 | 0.0 | 3.0 | 0.01 | 0.31 | 0.32 | 98 | 1017.3 |
| 20260901002401 | 68 | 288 | 0.0 | 3.0 | 0.01 | 0.31 | 0.32 | 98 | 1017.2 |
| 20260901001901 | 68 | 288 | 0.0 | 3.0 | 0.01 | 0.31 | 0.32 | 98 | 1017.1 |
| 20260901001619 | 68 | 288 | 1.0 | 3.0 | 0.01 | 0.31 | 0.32 | 98 | 1017.1 |
| 20260901000903 | 68 | 288 | 1.0 | 5.0 | 0.00 | 0.31 | 0.31 | 98 | 1017.1 |
| 20260901000401 | 68 | 288 | 1.0 | 5.0 | 0.00 | 0.31 | 0.31 | 98 | 1017.2 |
| 20260831235901 | 68 | 288 | 0.0 | 3.0 | 0.00 | 0.31 | 0.31 | 98 | 1017.2 |
| 20260831235402 | 68 | 288 | 0.0 | 3.0 | 0.00 | 0.31 | 0.31 | 98 | 1017.1 |
| 20260831234903 | 68 | 288 | 1.0 | 3.0 | 0.00 | 0.31 | 0.31 | 98 | 1016.9 |
| 20260831234401 | 68 | 288 | 1.0 | 4.0 | 0.00 | 0.31 | 0.31 | 98 | 1016.9 |
| 20260831233901 | 68 | 288 | 1.0 | 4.0 | 0.00 | 0.31 | 0.31 | 98 | 1016.9 |
| 20260831233400 | 68 | 288 | 1.0 | 4.0 | 0.01 | 0.31 | 0.31 | 98 | 1017.1 |
| 20260831232903 | 68 | 288 | 1.0 | 3.0 | 0.01 | 0.31 | 0.31 | 98 | 1017.1 |
| 20260831232401 | 68 | 288 | 1.0 | 3.0 | 0.01 | 0.31 | 0.31 | 98 | 1017.1 |
| 20260831231902 | 68 | 288 | 0.0 | 3.0 | 0.01 | 0.31 | 0.31 | 98 | 1017.1 |
| 20260831231400 | 68 | 288 | 0.0 | 2.0 | 0.01 | 0.31 | 0.31 | 98 | 1017.3 |